FW1513 Weather Reports


Display with metric or nautical units.
time (UTC)temp
F
wind
direction
speed
MPH
gust
MPH
rain 1hr
in
rain 24hr
in
rain mn
in
humidity
%
barometer
mb
20210422223110 68 297 0.0 1.0 0.00 0.00 0.00 33 997.4
20210422223104 68 191 0.0 1.0 0.00 0.00 0.00 30 997.3
20210422222102 68 318 0.0 1.0 0.00 0.00 0.00 33 997.3
20210422221601 68 293 0.0 1.0 0.00 0.00 0.00 32 997.4
20210422221100 69 242 0.0 2.0 0.00 0.00 0.00 31 997.4
20210422220601 69 257 0.0 2.0 0.00 0.00 0.00 30 997.4
20210422220103 69 19 0.0 1.0 0.00 0.00 0.00 31 997.4
20210422215602 69 13 0.0 1.0 0.00 0.00 0.00 31 997.6
20210422215103 70 240 0.0 0.0 0.00 0.00 0.00 29 997.6
20210422214603 69 148 0.0 0.0 0.00 0.00 0.00 30 997.7
20210422214104 69 243 0.0 0.0 0.00 0.00 0.00 33 997.7
20210422213603 69 240 0.0 1.0 0.00 0.00 0.00 32 997.8
20210422213105 69 297 0.0 1.0 0.00 0.00 0.00 33 997.8
20210422212604 68 325 0.0 1.0 0.00 0.00 0.00 33 997.9
20210422212103 68 294 0.0 3.0 0.00 0.00 0.00 33 997.9
20210422211602 68 221 0.0 3.0 0.00 0.00 0.00 32 997.9
20210422211102 67 334 0.0 2.0 0.00 0.00 0.00 31 997.9
20210422210601 67 280 0.0 1.0 0.00 0.00 0.00 31 998.0
20210422210101 67 283 0.0 6.0 0.00 0.00 0.00 33 998.0
20210422205601 68 351 0.0 6.0 0.00 0.00 0.00 30 998.1
20210422205101 68 210 0.0 3.0 0.00 0.00 0.00 31 998.1
20210422204600 68 230 0.0 3.0 0.00 0.00 0.00 34 998.2
20210422204059 67 239 0.0 2.0 0.00 0.00 0.00 33 998.3
20210422203557 66 290 0.0 2.0 0.00 0.00 0.00 35 998.4
20210422203056 67 283 0.0 1.0 0.00 0.00 0.00 34 998.4
20210422202553 67 249 0.0 6.0 0.00 0.00 0.00 33 998.3
20210422202054 66 142 0.0 6.0 0.00 0.00 0.00 32 998.5
20210422201554 66 350 0.0 4.0 0.00 0.00 0.00 32 998.6
20210422201055 65 142 0.0 3.0 0.00 0.00 0.00 33 998.7
20210422200556 66 238 0.0 3.0 0.00 0.00 0.00 33 998.8
20210422200055 67 66 0.0 1.0 0.00 0.00 0.00 33 998.8
20210422195559 66 226 0.0 1.0 0.00 0.00 0.00 36 999.0
20210422195054 66 266 0.0 3.0 0.00 0.00 0.00 33 998.9
20210422194553 66 233 0.0 3.0 0.00 0.00 0.00 34 999.0
20210422194052 67 226 0.0 1.0 0.00 0.00 0.00 37 999.0
20210422193552 65 143 0.0 1.0 0.00 0.00 0.00 36 999.1
20210422193053 65 293 0.0 1.0 0.00 0.00 0.00 33 999.2
20210422192552 66 314 0.0 1.0 0.00 0.00 0.00 34 999.3
20210422192047 65 57 0.0 1.0 0.00 0.00 0.00 32 999.3
20210422191550 65 214 0.0 1.0 0.00 0.00 0.00 34 999.4
20210422191045 64 8 0.0 2.0 0.00 0.00 0.00 32 999.5
20210422190546 64 283 0.0 2.0 0.00 0.00 0.00 34 999.7
20210422190044 64 266 0.0 2.0 0.00 0.00 0.00 35 999.8
20210422185545 65 266 0.0 1.0 0.00 0.00 0.00 34 999.8
20210422185044 64 345 0.0 2.0 0.00 0.00 0.00 36 999.9
20210422184540 65 239 0.0 2.0 0.00 0.00 0.00 32 999.9
20210422184040 66 1 0.0 1.0 0.00 0.00 0.00 34 999.9
20210422183540 66 233 0.0 0.0 0.00 0.00 0.00 34 1000.0
20210422183037 64 172 0.0 3.0 0.00 0.00 0.00 36 1000.2
20210422182538 64 279 0.0 3.0 0.00 0.00 0.00 34 1000.2
20210422182037 63 314 0.0 5.0 0.00 0.00 0.00 34 1000.3
20210422181537 63 22 0.0 5.0 0.00 0.00 0.00 36 1000.3
20210422181036 63 233 0.0 2.0 0.00 0.00 0.00 34 1000.4
20210422180537 64 286 0.0 2.0 0.00 0.00 0.00 36 1000.6
20210422180041 64 355 0.0 3.0 0.00 0.00 0.00 35 1000.5
20210422175537 63 15 0.0 3.0 0.00 0.00 0.00 35 1000.7
20210422175035 64 328 0.0 2.0 0.00 0.00 0.00 36 1000.6
20210422174537 64 220 0.0 1.0 0.00 0.00 0.00 35 1000.8
20210422174036 64 284 0.0 4.0 0.00 0.00 0.00 36 1000.8
20210422173536 63 160 0.0 4.0 0.00 0.00 0.00 37 1000.8
20210422173036 63 169 0.0 2.0 0.00 0.00 0.00 37 1000.9
20210422172538 62 312 0.0 2.0 0.00 0.00 0.00 35 1000.9
20210422172038 62 297 0.0 7.0 0.00 0.00 0.00 38 1000.9
20210422171538 62 210 1.0 7.0 0.00 0.00 0.00 38 1000.9
20210422171037 61 177 1.0 6.0 0.00 0.00 0.00 38 1001.0
20210422170535 60 165 1.0 6.0 0.00 0.00 0.00 36 1001.1
20210422170037 60 155 0.0 6.0 0.00 0.00 0.00 37 1001.1
20210422165536 61 175 0.0 4.0 0.00 0.00 0.00 35 1001.2
20210422165038 61 258 0.0 4.0 0.00 0.00 0.00 36 1001.3
20210422164535 60 155 1.0 6.0 0.00 0.00 0.00 36 1001.4
20210422164038 60 190 1.0 6.0 0.00 0.00 0.00 36 1001.3
20210422163534 59 214 0.0 5.0 0.00 0.00 0.00 38 1001.4
20210422163034 59 232 0.0 5.0 0.00 0.00 0.00 38 1001.4
20210422162529 59 178 0.0 3.0 0.00 0.00 0.00 42 1001.7
20210422162032 59 287 0.0 3.0 0.00 0.00 0.00 38 1001.7
20210422161530 58 179 0.0 2.0 0.00 0.00 0.00 42 1001.9
20210422161030 59 255 0.0 1.0 0.00 0.00 0.00 38 1001.6
20210422160530 59 290 0.0 4.0 0.00 0.00 0.00 38 1001.7
20210422160029 59 279 1.0 7.0 0.00 0.00 0.00 40 1001.8
20210422155530 59 170 0.0 7.0 0.00 0.00 0.00 44 1001.8
20210422155029 58 140 0.0 4.0 0.00 0.00 0.00 38 1001.9
20210422154530 58 159 0.0 1.0 0.00 0.00 0.00 37 1002.0
20210422154030 58 223 0.0 4.0 0.00 0.00 0.00 41 1002.1
20210422153529 57 216 0.0 4.0 0.00 0.00 0.00 41 1002.1
20210422153030 56 271 0.0 1.0 0.00 0.00 0.00 41 1002.2
20210422152529 56 264 0.0 1.0 0.00 0.00 0.00 45 1002.2
20210422152029 56 162 0.0 3.0 0.00 0.00 0.00 44 1002.4
20210422151531 56 295 0.0 3.0 0.00 0.00 0.00 44 1002.0
20210422151031 55 225 0.0 2.0 0.00 0.00 0.00 48 1002.0
20210422150530 55 247 0.0 1.0 0.00 0.00 0.00 52 1001.8
20210422150028 54 289 0.0 2.0 0.00 0.00 0.00 50 1001.9
20210422145534 54 229 0.0 2.0 0.00 0.00 0.00 51 1001.8
20210422145029 53 205 0.0 2.0 0.00 0.00 0.00 57 1001.8
20210422144529 53 268 0.0 2.0 0.00 0.00 0.00 53 1001.7
20210422144030 52 191 0.0 0.0 0.00 0.00 0.00 54 1001.7
20210422143530 52 214 0.0 0.0 0.00 0.00 0.00 54 1001.9
20210422143030 51 196 0.0 0.0 0.00 0.00 0.00 59 1002.0
20210422142532 50 326 0.0 0.0 0.00 0.00 0.00 56 1002.0
20210422142031 50 167 0.0 0.0 0.00 0.00 0.00 57 1002.0
20210422141531 50 141 0.0 1.0 0.00 0.00 0.00 64 1002.0
20210422141029 49 158 0.0 1.0 0.00 0.00 0.00 62 1002.0
20210422140529 49 218 0.0 0.0 0.00 0.00 0.00 66 1002.0
20210422140029 48 235 0.0 0.0 0.00 0.00 0.00 69 1001.8
20210422135530 48 176 0.0 0.0 0.00 0.00 0.00 66 1001.7
20210422135029 48 257 0.0 0.0 0.00 0.00 0.00 68 1001.9
20210422134530 47 235 0.0 0.0 0.00 0.00 0.00 70 1001.7
20210422134029 47 166 0.0 0.0 0.00 0.00 0.00 67 1001.5
20210422133530 46 238 0.0 0.0 0.00 0.00 0.00 74 1001.5
20210422133042 46 195 0.0 0.0 0.00 0.00 0.00 72 1001.4
20210422132529 45 167 0.0 0.0 0.00 0.00 0.00 82 1001.5
20210422132029 43 176 0.0 0.0 0.00 0.00 0.00 87 1001.6
20210422131531 42 168 0.0 0.0 0.00 0.00 0.00 89 1001.7
20210422131031 41 195 0.0 0.0 0.00 0.00 0.00 92 1001.8
20210422130531 41 195 0.0 0.0 0.00 0.00 0.00 93 1001.7
20210422130033 40 195 0.0 0.0 0.00 0.00 0.00 94 1001.7
20210422125531 40 195 0.0 0.0 0.00 0.00 0.00 94 1001.7
20210422125032 40 195 0.0 0.0 0.00 0.00 0.00 95 1001.8
20210422124533 39 195 0.0 0.0 0.00 0.00 0.00 96 1001.5
20210422124031 39 195 0.0 0.0 0.00 0.00 0.00 96 1001.5
20210422123533 38 181 0.0 0.0 0.00 0.00 0.00 96 1001.5
20210422123031 37 169 0.0 0.0 0.00 0.00 0.00 96 1001.4
20210422122531 37 169 0.0 0.0 0.00 0.00 0.00 96 1001.4
20210422122032 37 169 0.0 0.0 0.00 0.00 0.00 96 1001.3
20210422121531 36 169 0.0 0.0 0.00 0.00 0.00 96 1001.2
20210422121031 36 169 0.0 0.0 0.00 0.00 0.00 95 1001.0
20210422120532 36 169 0.0 0.0 0.00 0.00 0.00 95 1001.0
20210422120031 36 169 0.0 0.0 0.00 0.00 0.00 95 1000.9
20210422115532 36 169 0.0 0.0 0.00 0.00 0.00 95 1000.9
20210422115030 0 0.0 0.0 0.00 0.00 0.00 1000.8
20210422114531 0 0.0 0.0 0.00 0.00 0.00 1000.8
20210422114030 0 0.0 0.0 0.00 0.00 0.00 1000.8
20210422113533 0 0.0 0.0 0.00 0.00 0.00 1000.6
20210422113033 0 0.0 0.0 0.00 0.00 0.00 1000.6
20210422112530 0 0.0 0.0 0.00 0.00 0.00 1000.4
20210422112032 0 0.0 0.0 0.00 0.00 0.00 1000.3
20210422111533 0 0.0 0.0 0.00 0.00 0.00 1000.2
20210422111029 0 165 0.0 0.0 0.00 0.00 0.00 1000.0
20210422110531 0 165 0.0 0.0 0.00 0.00 0.00 999.9
20210422110029 35 165 0.0 0.0 0.00 0.00 0.00 93 999.8
20210422105535 35 165 0.0 0.0 0.00 0.00 0.00 93 999.7
20210422105031 35 169 0.0 0.0 0.00 0.00 0.00 93 999.6
20210422104532 35 169 0.0 0.0 0.00 0.00 0.00 93 999.8
20210422104028 35 169 0.0 0.0 0.00 0.00 0.00 93 999.8
20210422103531 35 169 0.0 0.0 0.00 0.00 0.00 92 999.7
20210422103030 36 169 0.0 0.0 0.00 0.00 0.00 92 999.7
20210422102528 36 169 0.0 0.0 0.00 0.00 0.00 92 999.7
20210422102030 36 169 0.0 0.0 0.00 0.00 0.00 91 999.4
20210422101530 36 169 0.0 0.0 0.00 0.00 0.00 91 999.4
20210422101030 36 169 0.0 0.0 0.00 0.00 0.00 91 999.4
20210422100530 36 169 0.0 0.0 0.00 0.00 0.00 90 999.2
20210422100029 37 267 0.0 0.0 0.00 0.00 0.00 89 999.2
20210422095530 37 267 0.0 0.0 0.00 0.00 0.00 88 999.2
20210422095029 37 267 0.0 0.0 0.00 0.00 0.00 88 999.1
20210422094529 37 267 0.0 0.0 0.00 0.00 0.00 87 999.0
20210422094029 38 267 0.0 0.0 0.00 0.00 0.00 86 998.9
20210422093531 38 267 0.0 0.0 0.00 0.00 0.00 86 999.0
20210422093030 38 268 0.0 0.0 0.00 0.00 0.00 87 998.9
20210422092531 37 268 0.0 0.0 0.00 0.00 0.00 88 998.9
20210422092031 37 264 0.0 0.0 0.00 0.00 0.00 89 998.8
20210422091529 37 264 0.0 0.0 0.00 0.00 0.00 89 998.8
20210422091030 37 265 0.0 0.0 0.00 0.00 0.00 90 998.7
20210422090531 37 265 0.0 0.0 0.00 0.00 0.00 92 999.1
20210422090030 37 326 0.0 0.0 0.00 0.00 0.00 94 999.0
20210422085528 36 326 0.0 0.0 0.00 0.00 0.00 94 999.1
20210422085029 36 326 0.0 0.0 0.00 0.00 0.00 93 999.3
20210422084528 36 326 0.0 0.0 0.00 0.00 0.00 93 999.3
20210422084027 36 326 0.0 0.0 0.00 0.00 0.00 93 999.4
20210422083528 36 326 0.0 0.0 0.00 0.00 0.00 93 999.4
20210422083028 36 326 0.0 0.0 0.00 0.00 0.00 92 999.4
20210422082527 37 326 0.0 0.0 0.00 0.00 0.00 92 999.3
20210422082028 37 326 0.0 0.0 0.00 0.00 0.00 92 999.2
20210422081528 37 326 0.0 0.0 0.00 0.00 0.00 93 999.1
20210422081026 37 326 0.0 0.0 0.00 0.00 0.00 93 999.2
20210422080526 37 326 0.0 0.0 0.00 0.00 0.00 93 999.2
20210422080027 37 326 0.0 0.0 0.00 0.00 0.00 92 999.4
20210422075531 37 326 0.0 0.0 0.00 0.00 0.00 92 999.5
20210422075026 37 326 0.0 0.0 0.00 0.00 0.00 91 999.6
20210422074527 37 326 0.0 0.0 0.00 0.00 0.00 91 999.5
20210422074027 38 326 0.0 0.0 0.00 0.00 0.00 91 999.7
20210422073527 38 326 0.0 0.0 0.00 0.00 0.00 92 999.7
20210422073028 37 326 0.0 0.0 0.00 0.00 0.00 93 999.8
20210422072527 37 321 0.0 0.0 0.00 0.00 0.00 92 999.9
20210422072032 37 321 0.0 0.0 0.00 0.00 0.00 92 999.8
20210422071528 37 321 0.0 0.0 0.00 0.00 0.00 92 999.8
20210422071021 37 322 0.0 0.0 0.00 0.00 0.00 91 999.8
20210422070515 37 321 0.0 0.0 0.00 0.00 0.00 91 999.7
20210422070012 38 321 0.0 0.0 0.00 0.00 0.00 92 999.8
20210422065510 38 321 0.0 0.0 0.00 0.00 0.00 91 999.8
20210422065011 38 321 0.0 0.0 0.00 0.00 0.00 91 999.8
20210422064512 38 321 0.0 0.0 0.00 0.00 0.00 90 999.8
20210422064007 38 321 0.0 0.0 0.00 0.00 0.00 90 1000.0
20210422063504 38 321 0.0 0.0 0.00 0.00 0.00 90 1000.0
20210422063002 38 321 0.0 0.0 0.00 0.00 0.00 90 1000.1
20210422062506 38 321 0.0 0.0 0.00 0.00 0.00 90 1000.0
20210422062010 38 321 0.0 0.0 0.00 0.00 0.00 90 1000.1
20210422061503 38 321 0.0 0.0 0.00 0.00 0.00 89 1000.1
20210422061004 38 321 0.0 0.0 0.00 0.00 0.00 88 1000.1
20210422060501 39 321 0.0 0.0 0.00 0.00 0.00 87 1000.1
20210422060002 39 321 0.0 0.0 0.00 0.00 0.00 88 1000.0
20210422055501 39 321 0.0 0.0 0.00 0.00 0.00 88 999.9
20210422055002 39 321 0.0 0.0 0.00 0.00 0.00 89 999.9
20210422054505 39 321 0.0 0.0 0.00 0.00 0.00 88 999.9
20210422054004 39 321 0.0 0.0 0.00 0.00 0.00 87 999.7
20210422053501 39 321 0.0 0.0 0.00 0.00 0.00 86 999.8
20210422053004 39 321 0.0 0.0 0.00 0.00 0.00 85 999.8
20210422052457 40 321 0.0 0.0 0.00 0.00 0.00 84 999.7
20210422051952 40 321 0.0 0.0 0.00 0.00 0.00 83 999.5
20210422051445 40 321 0.0 0.0 0.00 0.00 0.00 84 999.6
20210422050938 40 321 0.0 0.0 0.00 0.00 0.00 85 999.5
20210422050436 40 321 0.0 0.0 0.00 0.00 0.00 85 999.5
20210422045934 39 321 0.0 0.0 0.00 0.00 0.00 87 999.4
20210422045431 39 321 0.0 0.0 0.00 0.00 0.00 85 999.4
20210422044928 40 321 0.0 0.0 0.00 0.00 0.00 85 999.6
20210422044428 40 321 0.0 0.0 0.00 0.00 0.00 85 999.5
20210422043928 40 321 0.0 0.0 0.00 0.00 0.00 87 999.5
20210422043429 40 321 0.0 0.0 0.00 0.00 0.00 86 999.3
20210422042932 40 321 0.0 0.0 0.00 0.00 0.00 85 999.3
20210422042438 40 321 0.0 0.0 0.00 0.00 0.00 84 999.4
20210422041929 40 321 0.0 0.0 0.00 0.00 0.00 83 999.4
20210422041429 40 321 0.0 0.0 0.00 0.00 0.00 82 999.5
20210422040933 41 321 0.0 0.0 0.00 0.00 0.00 81 999.3
20210422040430 42 321 0.0 0.0 0.00 0.00 0.00 81 999.4
20210422035935 42 321 0.0 0.0 0.00 0.00 0.00 79 999.4
20210422035437 43 322 0.0 0.0 0.00 0.00 0.00 79 999.4
20210422034930 43 322 0.0 0.0 0.00 0.00 0.00 76 999.4
20210422034430 43 333 0.0 0.0 0.00 0.00 0.00 74 999.3
20210422033929 43 338 0.0 0.0 0.00 0.00 0.00 75 999.4
20210422033429 43 341 0.0 0.0 0.00 0.00 0.00 77 999.4
20210422032930 43 343 0.0 0.0 0.00 0.00 0.00 77 999.4
20210422032428 43 344 0.0 0.0 0.00 0.00 0.00 78 999.6
20210422031929 43 343 0.0 0.0 0.00 0.00 0.00 74 999.5
20210422031429 43 343 0.0 0.0 0.00 0.00 0.00 76 999.5
20210422030929 43 344 0.0 0.0 0.00 0.00 0.00 73 999.5
20210422030430 43 344 0.0 0.0 0.00 0.00 0.00 78 999.6
20210422025929 44 344 0.0 0.0 0.00 0.00 0.00 76 999.5
20210422025429 44 343 0.0 0.0 0.00 0.00 0.00 69 999.4
20210422024929 44 344 0.0 0.0 0.00 0.00 0.00 71 999.5
20210422024429 44 344 0.0 0.0 0.00 0.00 0.00 69 999.5
20210422023929 45 344 0.0 0.0 0.00 0.00 0.00 69 999.4
20210422023432 45 347 0.0 0.0 0.00 0.00 0.00 69 999.3
20210422022928 46 347 0.0 0.0 0.00 0.00 0.00 67 999.2
20210422022429 46 347 0.0 0.0 0.00 0.00 0.00 66 999.2
20210422021932 47 347 0.0 0.0 0.00 0.00 0.00 62 999.1
20210422021431 47 351 0.0 0.0 0.00 0.00 0.00 60 999.1
20210422020930 47 5 0.0 0.0 0.00 0.00 0.00 60 999.1
20210422020429 47 357 0.0 1.0 0.00 0.00 0.00 61 998.9
20210422015930 47 356 0.0 1.0 0.00 0.00 0.00 60 998.9
20210422015429 47 11 0.0 0.0 0.00 0.00 0.00 60 998.8
20210422014929 48 2 0.0 0.0 0.00 0.00 0.00 59 998.8
20210422014432 48 3 0.0 0.0 0.00 0.00 0.00 58 998.7
20210422013930 48 285 0.0 0.0 0.00 0.00 0.00 59 998.6
20210422013438 48 320 0.0 0.0 0.00 0.00 0.00 59 998.5
20210422012930 48 341 0.0 0.0 0.00 0.00 0.00 58 998.5
20210422012430 48 1 0.0 0.0 0.00 0.00 0.00 58 998.5
20210422011930 48 37 0.0 0.0 0.00 0.00 0.00 59 998.4
20210422011431 48 30 0.0 0.0 0.00 0.00 0.00 59 998.3
20210422010932 48 336 0.0 0.0 0.00 0.00 0.00 58 998.2
20210422010432 49 352 0.0 0.0 0.00 0.00 0.00 58 998.0
20210422005932 49 344 0.0 0.0 0.00 0.00 0.00 57 998.1
20210422005429 49 333 0.0 1.0 0.00 0.00 0.00 57 998.0
20210422004932 50 328 0.0 1.0 0.00 0.00 0.00 55 997.9
20210422004431 50 324 0.0 1.0 0.00 0.00 0.00 55 997.8
20210422003931 50 338 0.0 1.0 0.00 0.00 0.00 54 997.8
20210422003429 51 325 0.0 1.0 0.00 0.00 0.00 53 997.9
20210422002933 51 333 0.0 1.0 0.00 0.00 0.00 53 997.7
20210422002430 51 18 0.0 3.0 0.00 0.00 0.00 52 997.6
20210422001933 51 274 0.0 3.0 0.00 0.00 0.00 51 997.4
20210422001430 52 342 0.0 4.0 0.00 0.00 0.00 51 997.3
20210422000923 52 335 0.0 4.0 0.00 0.00 0.00 50 997.3
20210422000418 52 323 0.0 1.0 0.00 0.00 0.00 52 997.3
20210421235914 53 353 0.0 1.0 0.00 0.00 0.00 50 997.2
20210421235415 53 20 0.0 0.0 0.00 0.00 0.00 51 997.3
20210421234912 53 20 0.0 0.0 0.00 0.00 0.00 50 997.4
20210421234416 53 316 0.0 1.0 0.00 0.00 0.00 50 997.4
20210421233918 54 268 0.0 1.0 0.00 0.00 0.00 48 997.4
20210421233414 54 8 0.0 1.0 0.00 0.00 0.00 48 997.4
20210421232913 55 294 0.0 4.0 0.00 0.00 0.00 48 997.4
20210421232409 55 5 0.0 6.0 0.00 0.00 0.00 46 997.5
20210421231910 55 20 0.0 6.0 0.00 0.00 0.00 45 997.5
20210421231412 56 226 0.0 0.0 0.00 0.00 0.00 46 997.5
20210421230910 56 342 0.0 2.0 0.00 0.00 0.00 47 997.5
20210421230408 56 13 0.0 2.0 0.00 0.00 0.00 44 997.7
20210421225906 56 11 0.0 2.0 0.00 0.00 0.00 44 997.7
20210421225407 57 179 0.0 9.0 0.00 0.00 0.00 42 997.7
20210421224906 57 0 1.0 9.0 0.00 0.00 0.00 43 997.7
20210421224404 58 281 0.0 8.0 0.00 0.00 0.00 40 997.6
20210421223905 58 24 0.0 3.0 0.00 0.00 0.00 42 997.6
20210421223403 58 247 1.0 6.0 0.00 0.00 0.00 42 997.6